Orange, MA

5:46 AM EST on December 09, 2019 (GMT -0500)
Orange Municipal

Weather History for KORE - October, 2019

Change the Weather History Date:

Monday, October 7, 2019

  Actual Average Record
Temperature  
Mean Temperature 64 °F -  
Max Temperature 72 °F 61 °F 80 °F (2018)
Min Temperature 57 °F 37 °F 26 °F (1999)
Degree Days  
Heating Degree Days 2    
Growing Degree Days 14 (Base 50)    
Moisture  
Dew Point 60 °F    
Average Humidity 86    
Maximum Humidity 93    
Minimum Humidity 68    
Precipitation  
Precipitation 0.56 in - - ()
Sea Level Pressure  
Sea Level Pressure 30.13 in    
Wind  
Wind Speed 9 mph ()    
Max Wind Speed 18 mph    
Max Gust Speed 28 mph    
Visibility 6.9 miles    
Events Rain    
Averages and records for this station are not official NWS values.
T = Trace of Precipitation, MM = Missing Value Source: Averaged Metar Reports

Daily Weather History Graph

Daily Weather History Graph

Search for Another Location

Airport or City:

Astronomy

Oct. 07, 2019 Rise Set
Actual Time 6:52 AM EDT 6:20 PM EDT
Civil Twilight 6:24 AM EDT 6:48 PM EDT
Nautical Twilight 5:51 AM EDT 7:21 PM EDT
Astronomical Twilight 5:19 AM EDT 7:54 PM EDT
Moon 3:49 PM EDT (10/7) 12:33 AM EDT (10/7)
Length of Visible Light 12h 24m
Length of Day
11h 27m
Waxing Gibbous, 69% of the Moon is Illuminated
Oct 7
Waxing Gibbous
Oct 13
Full
Oct 21
Last Quarter
Oct 27
New
Nov 4
First Quarter

Hourly Weather History & Observations

Time (EDT) Temp. Dew Point Humidity Pressure Visibility Wind Dir Wind Speed Gust Speed Precip Events Conditions
12:20 AM 66.0 °F 59.0 °F 78% 30.21 in 10.0 mi South 13.8 mph 19.6 mph N/A   Overcast
12:52 AM 66.0 °F 60.1 °F 81% 30.21 in 10.0 mi South 11.5 mph - N/A   Overcast
1:52 AM 66.0 °F 60.1 °F 81% 30.19 in 10.0 mi South 10.4 mph - 0.00 in Rain Light Rain
2:33 AM 64.9 °F 61.0 °F 87% 30.18 in 7.0 mi South 11.5 mph 21.9 mph 0.00 in Rain Light Rain
2:59 AM 64.9 °F 60.1 °F 84% 30.17 in 8.0 mi South 8.1 mph 18.4 mph N/A   Overcast
3:52 AM 66.0 °F 60.1 °F 81% 30.16 in 10.0 mi South 16.1 mph 23.0 mph N/A   Overcast
4:35 AM 64.0 °F 61.0 °F 90% 30.15 in 3.0 mi South 12.7 mph - 0.01 in Rain Light Rain
4:52 AM 64.0 °F 61.0 °F 90% 30.16 in 4.0 mi South 13.8 mph - 0.03 in Rain Light Rain
5:05 AM 64.0 °F 61.0 °F 90% 30.15 in 4.0 mi South 13.8 mph - 0.01 in Rain Rain
5:52 AM 64.0 °F 61.0 °F 90% 30.15 in 8.0 mi South 11.5 mph 21.9 mph 0.03 in Rain Light Rain
6:24 AM 64.9 °F 61.0 °F 87% 30.14 in 10.0 mi South 15.0 mph 27.6 mph 0.00 in   Overcast
6:52 AM 64.0 °F 61.0 °F 90% 30.14 in 7.0 mi South 13.8 mph - 0.03 in Rain Light Rain
7:52 AM 64.9 °F 61.0 °F 87% 30.13 in 10.0 mi South 12.7 mph 21.9 mph 0.00 in   Overcast
8:52 AM 66.9 °F 61.0 °F 81% 30.13 in 10.0 mi South 18.4 mph 25.3 mph N/A   Overcast
9:52 AM 68.0 °F 61.0 °F 78% 30.12 in 10.0 mi South 13.8 mph 20.7 mph 0.00 in   Mostly Cloudy
10:52 AM 68.0 °F 61.0 °F 78% 30.12 in 10.0 mi South 13.8 mph 18.4 mph 0.00 in Rain Light Rain
11:52 AM 70.0 °F 59.0 °F 68% 30.10 in 10.0 mi South 13.8 mph 23.0 mph 0.01 in   Overcast
12:52 PM 70.0 °F 60.1 °F 71% 30.09 in 10.0 mi SSW 11.5 mph 24.2 mph 0.00 in Rain Light Rain
1:52 PM 70.0 °F 61.0 °F 73% 30.06 in 8.0 mi SSW 10.4 mph - 0.00 in Rain Light Rain
2:52 PM 68.0 °F 62.1 °F 81% 30.06 in 6.0 mi SSW 6.9 mph - 0.02 in Rain Light Rain
3:52 PM 66.0 °F 62.1 °F 87% 30.06 in 6.0 mi SW 5.8 mph - 0.02 in Rain Light Rain
4:30 PM 66.0 °F 63.0 °F 90% 30.07 in 2.5 mi West 4.6 mph - 0.02 in Rain Light Rain
4:40 PM 66.0 °F 63.0 °F 90% 30.07 in 1.5 mi Calm Calm - 0.05 in Rain Rain
4:52 PM 66.0 °F 63.0 °F 90% 30.07 in 1.8 mi SSW 3.5 mph - 0.08 in Rain Rain
5:00 PM 66.0 °F 63.0 °F 90% 30.07 in 3.0 mi SW 3.5 mph - 0.01 in Rain Light Rain
5:18 PM 66.0 °F 63.0 °F 90% 30.07 in 2.5 mi Calm Calm - 0.02 in Rain Rain
5:34 PM 64.0 °F 60.1 °F 87% 30.09 in 3.0 mi WNW 12.7 mph - 0.06 in Rain Rain
5:44 PM 63.0 °F 60.1 °F 90% 30.09 in 2.5 mi WNW 10.4 mph - 0.07 in Rain Rain
5:52 PM 62.1 °F 59.0 °F 90% 30.10 in 2.0 mi NW 8.1 mph - 0.09 in Rain Rain
6:12 PM 62.1 °F 57.9 °F 86% 30.11 in 4.0 mi NW 11.5 mph - 0.03 in Rain Rain
6:31 PM 61.0 °F 57.0 °F 87% 30.12 in 4.0 mi NNW 9.2 mph - 0.07 in Rain Rain
6:52 PM 59.0 °F 55.9 °F 90% 30.14 in 5.0 mi North 6.9 mph - 0.10 in Rain Rain
7:04 PM 59.0 °F 55.9 °F 90% 30.13 in 10.0 mi North 8.1 mph - 0.00 in Rain Light Rain
7:22 PM 57.9 °F 55.0 °F 90% 30.14 in 8.0 mi North 6.9 mph - 0.02 in Rain Rain
7:52 PM 57.9 °F 55.0 °F 90% 30.14 in 10.0 mi NE 3.5 mph - 0.04 in Rain Light Rain
9:52 PM 57.9 °F 55.0 °F 90% 30.15 in 7.0 mi SSW 4.6 mph - 0.03 in Rain Light Rain
10:37 PM 57.9 °F 55.0 °F 90% 30.19 in 8.0 mi Calm Calm - 0.04 in Rain Light Rain
10:52 PM 57.9 °F 55.9 °F 93% 30.20 in 10.0 mi Calm Calm - 0.05 in Rain Light Rain
11:26 PM 57.9 °F 55.0 °F 90% 30.19 in 10.0 mi North 4.6 mph - 0.02 in Rain Light Rain
11:52 PM 57.9 °F 55.9 °F 93% 30.20 in 9.0 mi South 3.5 mph - 0.03 in Rain Rain